User: anonymous   Login
Location: Earls Croome
(52.0667°N, 2.2000°W)
Time: 02:54:31
(UTC+00:00)
Language:

Cosmos 2237 Rocket - Orbit

View from above orbital plane
View from above orbital plane
View from above satellite
View from above satellite

Ground track
Ground track

The orbit data is extracted from the following two-line orbital elements,

1 22566U 93016B   20021.85890069 -.00000091  00000-0 -22657-4 0  9998
2 22566  71.0050 235.5683 0008880 140.2949 219.8825 14.14959960385460
Epoch (UTC): 21 January 2020 20:36:49
Eccentricity: 0.0008880
inclination: 71.0050°
perigee height: 836 km
apogee height: 849 km
right ascension of ascending node: 235.5683°
argument of perigee: 140.2949°
revolutions per day: 14.14959960
mean anomaly at epoch: 219.8825°
orbit number at epoch: 38546

The dashed part of the orbit path shows where the satellite is in the earth's shadow,  

DLR